This demonstration page uses our WeatherBlox Daily Observations layout. Learn more.

Left ArrowRight Arrow

34.16533, -84.80231

Hourly Observations for September 4, 2017

Temp ( °F °C ) Dew Point ( °F °C ) Humidity (%) Winds ( mph kmh ) Pressure ( in mb ) Visibility ( mi km ) Precip ( " mm )
12:53 am 00:53 Clear 59 15 59 15 100 100 Calm 30.09 1019 10 16 0.00 0.00
1:53 am 01:53 Clear 57 13.9 57 13.9 100 100 Calm 30.09 1019 10 16 0.00 0.00
2:53 am 02:53 Clear 57 13.9 57 13.9 100 100 Calm 30.08 1019 10 16 0.00 0.00
3:53 am 03:53 Clear 57 13.9 57 13.9 100 100 Calm 30.07 1018 10 16 0.00 0.00
4:53 am 04:53 Clear 56 13.3 56 13.3 100 100 Calm 30.07 1018 10 16 0.00 0.00
5:53 am 05:53 Clear 55 12.8 55 12.8 100 100 Calm 30.08 1019 10 16 0.00 0.00
6:53 am 06:53 Clear 54 12.2 54 12.2 100 100 Calm 30.09 1019 9 14 0.00 0.00
7:53 am 07:53 Sunny 56 13.3 56 13.3 100 100 Calm 30.10 1019 9 14 0.00 0.00
8:53 am 08:53 Sunny 63 17.2 61 16.1 93 93 Calm 30.11 1020 9 14 0.00 0.00
9:53 am 09:53 Sunny 70 21.1 64 17.8 82 82 Calm 30.11 1020 10 16 0.00 0.00
10:53 am 10:53 Sunny 76 24.4 64 17.8 67 67 Calm 30.11 1020 10 16 0.00 0.00
11:53 am 11:53 Sunny 79 26.1 62 16.7 56 56 VRB 5 7 30.10 1019 10 16 0.00 0.00
12:53 pm 12:53 Sunny 81 27.2 61 16.1 51 51 VRB 3 6 30.08 1019 10 16 0.00 0.00
1:53 pm 13:53 Sunny 84 28.9 63 17.2 49 49 VRB 5 7 30.06 1018 10 16 0.00 0.00
2:53 pm 14:53 Mostly Sunny 85 29.4 63 17.2 48 48 VRB 7 11 30.04 1017 10 16 0.00 0.00
3:53 pm 15:53 Mostly Cloudy 85 29.4 63 17.2 48 48 VRB 3 6 30.02 1017 10 16 0.00 0.00
4:53 pm 16:53 Partly Cloudy 84 28.9 63 17.2 49 49 Calm 30.01 1016 10 16 0.00 0.00
5:53 pm 17:53 Sunny 83 28.3 64 17.8 53 53 SSW 6 9 30.00 1016 10 16 0.00 0.00
6:53 pm 18:53 Sunny 82 27.8 65 18.3 56 56 Calm 29.99 1016 10 16 0.00 0.00
7:53 pm 19:53 Sunny 74 23.3 69 20.6 85 85 Calm 29.98 1015 10 16 0.00 0.00
8:53 pm 20:53 Clear 71 21.7 68 20 90 90 Calm 29.98 1015 10 16 0.00 0.00
9:53 pm 21:53 Clear 68 20 68 20 100 100 Calm 29.99 1016 10 16 0.00 0.00
10:53 pm 22:53 Clear 68 20 67 19.4 96 96 Calm 29.98 1015 10 16 0.00 0.00
11:53 pm 23:53 Clear 67 19.4 67 19.4 100 100 Calm 29.99 1016 9 14 0.00 0.00

Powered by AerisWeather